#timestamp,LO_Frequency,Hit,StdDev 
1564844415.3,286046997.7,N
1564844435.1,286046997.8,N
1564844436.0,286046997.8,N
1564844455.8,286046998.0,N
1564844475.7,286046999.6,N
1564844495.5,286046999.3,N
1564844515.3,286046999.3,N
1564844535.2,286046996.8,N
1564844555.0,286046995.0,Y
1564844555.9,286046995.0,P
1564844575.8,286046997.0,N
1564844595.6,286046996.7,N
1564844615.4,286046997.1,N
1564844635.3,286046999.0,N
1564844655.1,286047000.8,N
1564844675.8,286046999.8,N
1564844695.7,286047003.6,N
1564844715.5,286047003.4,N
1564844735.4,286047003.5,N
1564844755.2,286047007.1,N
1564844775.0,286047008.8,N
1564844775.9,286047008.8,N
1564844795.8,286047006.5,N
1564844815.6,286047004.5,N
1564844835.5,286047004.0,N
1564844855.3,286047002.4,N
1564844875.1,286047000.8,N
1564844895.9,286047000.9,N
1564844915.7,286047000.2,N
1564844935.5,286047002.4,N
1564844955.4,286047001.9,N
1564844975.2,286047003.9,N
1564844995.1,286047003.2,N
1564844996.0,286047003.2,N
1564845015.8,286047003.2,N
1564845035.6,286047003.8,N
1564845055.5,286047002.3,N
1564845075.3,286047001.2,N
1564845095.1,286047000.6,N
1564845115.9,286046999.1,N
1564845135.7,286046996.8,N
1564845155.6,286046998.1,N
1564845175.4,286047004.3,N
1564845195.2,286047000.3,N
1564845215.1,286046997.4,N
1564845216.0,286046997.4,N
1564845235.8,286046997.1,N
1564845255.6,286046995.1,N
1564845275.5,286046997.9,N
1564845295.3,286046995.0,N
1564845315.2,286046995.3,N
1564845335.0,286046995.0,N
1564845365.9,286046997.7,E
1564845375.9,286046999.2,N
1564845395.7,286047011.9,P
1564845415.5,286047000.8,N
1564845435.4,286047003.1,N
1564845455.2,286047001.8,N
1564845475.0,286047000.6,N
1564845476.0,286047000.6,N
1564845495.8,286047002.4,N
1564845515.6,286047001.8,N
1564845535.5,286047001.3,N
1564845555.3,286047003.4,N
1564845575.1,286047004.3,N
1564845595.9,286047003.9,N
1564845615.7,286047001.5,N
1564845635.6,286047002.5,N
1564845655.4,286047001.9,N
1564845675.2,286047006.0,N
1564845695.1,286047004.7,N
1564845696.0,286047004.7,N
1564845715.8,286047006.9,N
1564845735.6,286047006.9,N
1564845755.5,286047004.9,N
1564845775.3,286047005.1,N
1564845795.2,286047003.8,N
1564845815.9,286047005.2,N
1564845835.7,286047007.4,N
1564845855.6,286047006.4,N
1564845875.4,286047007.5,N
1564845895.2,286047005.0,N
1564845915.1,286047006.3,N
1564845916.0,286047011.9,Y
1564845935.8,286047005.9,P
1564845955.7,286047007.2,P
1564845975.5,286047007.4,P
1564845995.3,286047005.5,Y
1564846015.2,286046999.6,P
1564846035.0,286046996.0,N
1564846035.9,286046996.0,N
1564846055.8,286046993.7,N
1564846075.6,286046993.3,N
1564846095.4,286046993.5,N
1564846115.3,286046993.4,N
1564846135.1,286046994.4,N
1564846155.8,286046993.3,N
1564846175.7,286046996.0,N
1564846195.5,286046993.4,N
1564846215.4,286046993.5,N
1564846235.2,286046993.9,N
1564846255.0,286046994.4,N
1564846255.9,286046994.4,N
1564846275.8,286046994.4,N
1564846295.6,286046993.1,N
1564846315.5,286046993.5,N
1564846335.3,286046996.1,N
1564846355.1,286046995.7,N
1564846375.9,286046996.2,N
1564846395.7,286046995.3,N
1564846415.5,286046994.9,N
1564846435.4,286046998.0,N
1564846455.2,286046997.2,N
1564846475.1,286046996.7,N
1564846476.0,286046996.7,N
1564846495.8,286046997.4,N
1564846515.6,286046997.1,N
1564846535.5,286046999.6,N
1564846555.3,286046997.5,N
1564846575.1,286046997.9,N
1564846595.9,286046997.0,N
1564846615.7,286046996.8,N
1564846635.6,286046999.1,N
1564846655.4,286046999.2,N
1564846675.2,286046996.6,N
1564846695.1,286046997.0,N
1564846696.0,286046997.0,N
1564846715.8,286046997.1,N
1564846735.7,286046999.0,N
1564846755.5,286046996.6,N
1564846775.3,286046997.1,N
1564846795.2,286046997.0,N
1564846815.9,286046998.0,N
1564846835.7,286046995.7,N
1564846855.6,286046996.2,N
1564846875.4,286046994.1,Y
1564846895.3,286046996.1,P
1564846915.1,286046995.9,P
1564846916.0,286046995.9,P
1564846935.8,286046995.4,Y
1564846955.7,286047001.2,P
1564846975.5,286046998.2,N
1564846995.3,286046998.1,N
1564847015.2,286046999.7,N
1564847035.0,286047000.7,N
1564847035.9,286047000.7,N
1564847055.8,286047000.7,N
1564847075.6,286047000.7,N
1564847095.4,286047001.2,N
1564847115.3,286046998.1,N
1564847135.1,286046998.5,N
1564847155.9,286047000.7,N
1564847175.7,286046998.5,N
1564847195.5,286047000.8,N
1564847215.4,286046999.0,N
1564847235.2,286046998.7,N
1564847255.0,286046998.2,N
1564847255.9,286046998.2,N
1564847275.8,286046998.4,N
1564847295.6,286046998.9,N
1564847315.5,286046999.2,N
1564847335.3,286046997.5,N
1564847355.1,286046997.7,N
1564847375.9,286046995.4,Y
1564847395.7,286046996.7,P
1564847415.6,286046996.9,N
1564847435.4,286046996.8,N
1564847455.2,286046999.2,N
1564847475.1,286046999.5,N
1564847476.0,286046999.5,N
1564847495.8,286046996.9,N
1564847515.6,286046997.3,N
1564847535.5,286046999.1,N
1564847555.3,286046999.6,N
1564847575.2,286046996.6,N
1564847595.9,286046996.7,N
1564847615.7,286046997.1,N
1564847635.6,286046999.1,N
1564847655.4,286046997.2,N
1564847675.2,286046999.4,N
1564847695.1,286046996.6,N
1564847696.0,286046996.6,N
1564847715.8,286046996.6,N
1564847735.7,286046999.4,N
1564847755.5,286046998.1,N
1564847775.3,286046996.5,N
1564847795.2,286046999.1,N
1564847815.0,286046996.9,N
1564847815.9,286046996.9,N
1564847835.7,286046997.0,N
1564847855.6,286046999.6,N
1564847875.4,286046996.6,N
1564847895.3,286046996.8,N
1564847915.1,286046996.5,N
1564847916.0,286046996.5,N
1564847935.8,286046996.5,N
1564847955.7,286046997.7,N
1564847975.5,286046999.1,N
1564847995.4,286047002.3,N
